Home > Weather > Southampton > Past weeks

Flag for United Kingdom Weather for the Past 2 Weeks in Southampton, England, United Kingdom

Now
39 °F

Passing clouds.


Feels Like: 31 °F
Forecast: 37 / 47 °F
Wind: 15 mph from West

Location: Boscombe Down

Current Time: Feb 10, 2016 at 5:07:23 AM

Latest Report: Feb 10, 2016 at 3:50 AM


Visibility: N/A

Pressure: 29.33 "Hg

Humidity: 87%

Dew point: 36 °F

Location of SouthamptonLocation

Historic Weather in Southampton — Graph

°F

Southampton Temperature Yesterday

Maximum temperature yesterday: 45 °F (at 11:50 AM)
Minimum temperature yesterday: 36 °F (at 3:50 AM)
Average temperature yesterday: 39 °F

High & Low Weather Summary for the Past Weeks

 TemperatureHumidityPressure
High55 °F (Feb 1, 2:50 PM)100% (Jan 26, 2:50 AM)30.39 "Hg (Jan 26, 2:50 AM)
Low32 °F (Jan 28, 5:50 AM)57% (Feb 2, 2:50 PM)29.06 "Hg (Feb 7, 11:50 PM)
Average46 °F85%29.80 "Hg
* Reported Jan 26 2:50 AM — Feb 10 2:50 AM, Southampton, Weather by CustomWeather, © 2016

Note: Actual official high and low records may vary slightly from our data, if they occured in-between our weather recording intervals... More about our weather records

Advertising

Southampton Weather History for the Previous 24 Hours

 ConditionsComfort  
Time TempWeatherWind HumidityBarometerVisibility
2:50 AM
Wed, Feb 10
41 °FPassing clouds.20 mph81%29.33 "HgN/A
1:50 AM41 °FPartly cloudy.23 mph81%29.30 "HgN/A
12:50 AM41 °FPassing clouds.21 mph81%29.27 "HgN/A
11:50 PM
Tue, Feb 9
41 °FPassing clouds.20 mph81%29.27 "HgN/A
10:50 PM39 °FPassing clouds.16 mph87%29.24 "HgN/A
9:50 PM39 °FPassing clouds.18 mph87%29.21 "HgN/A
8:50 PM37 °FPassing clouds.17 mph93%29.21 "HgN/A
7:50 PM37 °FSprinkles. Passing clouds.17 mph87%29.21 "HgN/A
6:50 PM39 °FPartly cloudy.18 mph81%29.18 "HgN/A
5:50 PM39 °FPartly cloudy.20 mph81%29.18 "HgN/A
4:50 PM39 °FSprinkles. Broken clouds.17 mph87%29.15 "Hg5 mi
2:50 PM41 °FScattered clouds.13 mph76%29.12 "HgN/A
1:50 PM43 °FSprinkles. Broken clouds.24 mph57%29.12 "HgN/A
12:50 PM43 °FPartly sunny.20 mph61%29.12 "HgN/A
11:50 AM45 °FScattered clouds.15 mph61%29.12 "HgN/A
10:50 AM39 °FPartly sunny.10 mph87%29.12 "HgN/A
9:50 AM37 °FPartly sunny.7 mph93%29.09 "HgN/A
8:50 AM37 °FPartly sunny.7 mph93%29.12 "HgN/A
7:50 AM37 °FPartly sunny.3 mph93%29.12 "HgN/A
6:50 AM39 °FPassing clouds.8 mph87%29.15 "HgN/A
5:50 AM39 °FPassing clouds.5 mph87%29.21 "HgN/A
Weather by CustomWeather, © 2016

See weather overviewHow to use our weather pages